This is the latest recevied weather packets stored in our database for station/object DB0MAK-13. If no packets are shown the sender has not sent any weather packets the latest 1 day(s).
| Time | Temp. | Humidity | Pressure | Rain* | Wind** | Luminosity | Snow |
|---|---|---|---|---|---|---|---|
| 1778010244 | 11.11° C | 90% | 1005 hPa | 0 mm | 0 m/s | - | - |
| 1778010009 | 11.67° C | 90% | 1004.9 hPa | 0 mm | 0 m/s | - | - |
| 1778009644 | 11.67° C | 90% | 1004.9 hPa | 0 mm | 0 m/s | - | - |
| 1778009589 | 11.67° C | 90% | 1004.7 hPa | 0 mm | 0.45 m/s, 289° | - | - |
| 1778009044 | 11.67° C | 90% | 1004.7 hPa | 0 mm | 0 m/s | - | - |
| 1778008749 | 11.67° C | 90% | 1004.7 hPa | 0 mm | 0.45 m/s, 304° | - | - |
| 1778008444 | 11.67° C | 90% | 1004.6 hPa | 0 mm | 1.79 m/s, 317° | - | - |
| 1778008329 | 11.67° C | 90% | 1004.7 hPa | 0.25 mm | 2.68 m/s, 307° | - | - |
| 1778007909 | 11.67° C | 90% | 1004.7 hPa | 0.51 mm | 1.79 m/s, 313° | - | - |
| 1778007844 | 11.67° C | 90% | 1004.7 hPa | 0.51 mm | 1.79 m/s, 318° | - | - |
| 1778007244 | 11.67° C | 89% | 1004.6 hPa | 2.29 mm | 2.68 m/s, 308° | - | - |
| 1778007069 | 11.67° C | 89% | 1004.7 hPa | 2.79 mm | 0.45 m/s, 314° | - | - |
| 1778006644 | 11.67° C | 89% | 1005.1 hPa | 5.33 mm | 2.68 m/s, 296° | - | - |
| 1778006229 | 11.67° C | 89% | 1005.1 hPa | 7.87 mm | 0 m/s | - | - |
| 1778006044 | 11.67° C | 89% | 1005.2 hPa | 8.13 mm | 0 m/s | - | - |
| 1778005444 | 11.67° C | 89% | 1005.4 hPa | 7.87 mm | 0 m/s | - | - |
| 1778004967 | 12.22° C | 88% | 1005.1 hPa | 7.87 mm | 0 m/s | - | - |
| 1778004844 | 12.22° C | 88% | 1005.2 hPa | 7.87 mm | 0.45 m/s, 274° | - | - |
| 1778004244 | 12.22° C | 87% | 1005.2 hPa | 7.11 mm | 4.92 m/s, 264° | - | - |
| 1778004129 | 12.22° C | 86% | 1005.2 hPa | 7.11 mm | 4.92 m/s, 263° | - | - |
| 1778003709 | 12.22° C | 85% | 1005.2 hPa | 5.84 mm | 5.36 m/s, 274° | - | - |
| 1778003644 | 12.22° C | 85% | 1005.2 hPa | 5.59 mm | 4.92 m/s, 270° | - | - |
| 1778003289 | 12.78° C | 83% | 1005.2 hPa | 4.06 mm | 7.6 m/s, 277° | - | - |
| 1778003044 | 13.33° C | 81% | 1005.2 hPa | 2.54 mm | 7.15 m/s, 251° | - | - |
| 1778002444 | 15.56° C | 72% | 1005.2 hPa | 0 mm | 5.36 m/s, 224° | - | - |
* Rain latest hour (hover to see other rain measurements)
** Current wind speed in m/s (hover to see current wind gust speed)